Location: Landeleau
(48.2273°N, 3.7285°W)
Time: 00:36:08
(UTC+00:00)

STARLINK-1192 - Pass Details

Date: 30 March 2020
Orbit: 549 x 550 km, 53.0° (Epoch: 03 June)

Event Time Altitude Azimuth Distance (km) Brightness Sun altitude
Rises 20:34:54 0° 257° (WSW) 2,720 7.9 -18.4°
Reaches altitude 10° 20:37:09 10° 261° (W) 1,828 7.0 -18.8°
Maximum altitude 20:41:16 60° 341° (NNW) 638 4.1 -19.4°
Enters shadow 20:43:31 25° 54° (NE) 1,135 5.0 -19.7°
